Regional Weather Roundup
Issued by NWS

Home | Current Version | Previous Version | Graphics & Text | Print | Product List | Glossary On
Versions: 1 2 3 4 5 6 7 8 9 10 11 12 13 14 15 16 17 18 19 20 21 22 23 24 25 26 27 28
000
ASUS45 KPSR 270310
RWRAZ

ARIZONA HOURLY REGIONAL WEATHER ROUNDUP
NATIONAL WEATHER SERVICE PHOENIX AZ
800 PM MST THU MAY 26 2016

NOTE: FAIR INDICATES FEW OR NO CLOUDS BELOW 12,000 FEET WITH NO
SIGNIFICANT WEATHER AND/OR OBSTRUCTIONS TO VISIBILITY.

AZZ001>003-036-270400-
NORTHWEST ARIZONA

CITY           SKY/WX    TMP DP  RH WIND       PRES   REMARKS
BULLHEAD CITY  CLEAR     86  32  14 SE5       29.80S
KINGMAN        CLEAR     73  26  17 W7        29.92S
$$

AZZ004>008-015-016-018-270400-
NORTH CENTRAL ARIZONA

CITY           SKY/WX    TMP DP  RH WIND       PRES   REMARKS
GRAND CANYON   CLEAR     48  30  49 CALM      30.06R
WILLIAMS       CLEAR     50  28  43 N5        30.14S
PRESCOTT       PTCLDY    63  26  24 W8        29.99R
FLAGSTAFF      CLEAR     49  29  46 NW3       30.08R
PAYSON         PTCLDY    63  27  25 SW6       30.01
PAGE           PTCLDY    64  35  34 W10G22    29.92R
$$

AZZ009>014-017-270400-
NORTHEAST ARIZONA

CITY           SKY/WX    TMP DP  RH WIND       PRES   REMARKS
WINSLOW        PTCLDY    61  27  27 W8        29.98R
SAINT JOHNS    CLOUDY    55  33  43 W7        29.98R
WINDOW ROCK    MOCLDY    51  30  44 NW7       30.03R
SHOW LOW       MOCLDY    54  23  30 CALM      30.05S
$$

AZZ023-270400-
GREATER PHOENIX AREA

CITY           SKY/WX    TMP DP  RH WIND       PRES   REMARKS
PHOENIX        CLEAR     81  28  14 SW6       29.81R
BUCKEYE        CLEAR     77  28  16 W7        29.83R
GLENDALE       CLEAR     82  30  15 S7        29.82S
LUKE AFB       CLEAR     82  30  15 S10       29.80R
DEER VALLEY    CLEAR     79  29  16 S10       29.82R
SCOTTSDALE     CLEAR     80  28  15 S3        29.84S
MESA-GATEWAY   CLEAR     79  30  17 SW5       29.85S
CHANDLER       CLEAR     82  28  14 SW9       29.83S
$$

AZZ027-028-270400-
SOUTHWEST MARICOPA COUNTY AND PINAL COUNTY

CITY           SKY/WX    TMP DP  RH WIND       PRES   REMARKS
CASA GRANDE    CLEAR     77  28  16 W5        29.87R
GILA BEND      CLEAR     81  27  14 SW6       29.82R
$$

AZZ503-504-507>509-270400-
SOUTHEAST ARIZONA

CITY           SKY/WX    TMP DP  RH WIND       PRES   REMARKS
TUCSON         CLEAR     75  27  17 N12       29.92R
DAVIS-MONTHAN  CLEAR     74  27  17 NW10      29.90R
RYAN FIELD     CLEAR     75  32  20 N13       29.91R
NOGALES        CLEAR     69  22  16 NW7       29.96R
SIERRA VISTA   CLEAR     64  21  19 NW7       30.00R
DOUGLAS        CLEAR     67  18  15 NW10      29.95R
SAFFORD        CLEAR     71  22  15 NW15      29.88R
$$

AZZ020-021-025-026-031-270400-
SOUTHWEST ARIZONA

CITY           SKY/WX    TMP DP  RH WIND       PRES   REMARKS
YUMA           PTCLDY    84  36  18 SW7       29.81R
$$

CAZ031-033-041-043-047-048-061-270400-
SOUTHERN CALIFORNIA

CITY           SKY/WX    TMP DP  RH WIND       PRES   REMARKS
DOWNTOWN L.A.  CLEAR     63  50  62 W5        29.96S
L.A. AIRPORT   CLEAR     61  53  75 SW9       29.97S
SAN DIEGO      PTCLDY    65  54  67 NW6       30.00S
BURBANK        CLEAR     63  49  60 S8        29.96R
ONTARIO        PTCLDY    65  52  62 SW12      29.96R
RIVERSIDE      CLEAR     66  52  60 W8        29.96R
PALM SPRINGS   CLEAR     84  45  25 W22G31    29.80
EL CENTRO NAS  CLEAR     82  47  29 W15       29.81R
IMPERIAL       CLEAR     81  47  30 W10       29.78R
BLYTHE         CLEAR     85  40  20 S8        29.79R
NEEDLES        CLEAR     85  29  13 SE6       29.79S
$$

NVZ020-UTZ003-270400-
SOUTHERN NEVADA-UTAH

CITY           SKY/WX    TMP DP  RH WIND       PRES   REMARKS
LAS VEGAS      PTCLDY    81  30  15 W5        29.80R
SALT LAKE CITY MOCLDY    63  37  38 E15       29.94R
$$

NMZ009-TXZ055-270400-
NEW MEXICO-WEST TEXAS

CITY           SKY/WX    TMP DP  RH WIND       PRES   REMARKS
ALBUQUERQUE    PTCLDY    63  17  17 NW13G21   29.91R
EL PASO        CLEAR     78   8   7 W14G26    29.83R
$$


........................KEY........................
SKY/WX - SKY CONDITION/WEATHER
TMP    - TEMPERATURE IN FAHRENHEIT
DP     - DEW POINT IN FAHRENHEIT
RH     - RELATIVE HUMIDITY IN PERCENT
WIND   - DIRECTION AND SPEED IN MILES PER HOUR (MPH)
VRB    - VARIABLE WIND DIRECTION
PRES   - MEAN SEA LEVEL PRESSURE IN INCHES OF MERCURY
         F - FALLING PRESSURE   R - RISING PRESSURE
         S - STEADY PRESSURE
VSB    - VISIBILITY IN MILES
HX     - HEAT INDEX IN FAHRENHEIT
WCI    - WIND CHILL INDEX IN FAHRENHEIT
TC     - TEMPERATURE IN CELSIUS WHICH IS ALSO KNOWN AS
         TEMPERATURE IN CENTIGRADE
AFB    - AIR FORCE BASE
         LUKE AFB IS LUKE AIR FORCE BASE
         DAVIS-MONTHAN IS DAVIS-MONTHAN AIR FORCE BASE
NAS    - NAVAL AIR STATION
         EL CENTRO NAS IS EL CENTRO NAVAL AIR STATION
N/A    - NOT AVAILABLE





USA.gov is the U.S. government's official web portal to all federal, state and local government web resources and services.